Regional Weather Roundup
Issued by NWS

Home | Current Version | Previous Version | Text Only | Print | Product List | Glossary On
Versions: 1 2 3 4 5 6 7 8 9 10 11 12 13 14 15 16 17 18 19 20 21 22 23 24 25 26 27 28 29 30 31 32 33 34 35 36 37 38 39 40 41 42 43 44 45 46 47 48 49 50
000
ASUS43 KFSD 241010
RWRSD

WEATHER ROUNDUP FOR SOUTH DAKOTA
NATIONAL WEATHER SERVICE SIOUX FALLS SD
500 AM CDT SAT JUN 24 2017

NOTE: "FAIR" INDICATES FEW OR NO CLOUDS BELOW 12,000 FEET WITH NO
SIGNIFICANT WEATHER AND/OR OBSTRUCTIONS TO VISIBILITY.


SDZ001>005-009-010-012>017-241100-
NORTHWEST AND NORTH CENTRAL SOUTH DAKOTA

CITY           SKY/WX    TMP DP  RH WIND       PRES   REMARKS
BUFFALO          N/A     44  30  57 NW10      30.15F
FAITH            N/A     46  32  58 W12       30.18S
MOBRIDGE       PTCLDY    48  37  65 NW8       30.09S
$$

SDZ012>016-024>037-041>051-057-063-072>074-241100-
SOUTHWEST AND SOUTH CENTRAL SOUTH DAKOTA

CITY           SKY/WX    TMP DP  RH WIND       PRES   REMARKS
RAPID CTY ARPT PTCLDY    48  29  47 NW8       30.24F
PIERRE         CLEAR     46  36  68 SW10      30.13S
CUSTER         CLEAR     41  23  48 W8        30.30F
ELLSWORTH AFB  PTCLDY    46  29  52 W7        30.23F
PHILIP         PTCLDY    42  33  70 W12       30.19F
PINE RIDGE     CLEAR     37  34  89 CALM      30.25F
WINNER         FAIR      47  35  63 SW7       30.18S
$$

SDZ004>011-016>023-039-040-241100-
NORTHEAST SOUTH DAKOTA

CITY           SKY/WX    TMP DP  RH WIND       PRES   REMARKS
ABERDEEN       PTCLDY    40  38  93 SW5       30.07S
WATERTOWN      CLEAR     44  41  89 W10       30.06S
BROOKINGS      CLEAR     45  40  82 SW6       30.09S
SISSETON         N/A     50  41  71 W9        30.03R
$$

SDZ017-020-022-023-036>040-048>070-241100-
SOUTHEAST SOUTH DAKOTA

CITY           SKY/WX    TMP DP  RH WIND       PRES   REMARKS
SIOUX FALLS    CLEAR     47  43  86 SW5       30.11S
HURON          CLEAR     46  40  79 W6        30.10F
CHAMBERLAIN    CLEAR     46  42  87 SW6       30.15S
MITCHELL       CLEAR     49  40  71 SW6       30.12F
YANKTON        CLEAR     50  40  68 SW7       30.14F
$$

ABBREVIATIONS USED IN REMARKS
   TC - TEMPERATURE IN CELSIUS
  WCI - WIND CHILL INDEX
   HX - HEAT INDEX
  VSB - VISIBILITY





USA.gov is the U.S. government's official web portal to all federal, state and local government web resources and services.